Location: Bradford+West+Gwillimbury,+ON,+Canadà
(44.1162°N, 79.5735°W)
Time: 19:02:16
(UTC-04:00)

X-37B - Visible Passes

Search period start: 20 June 2021 00:00
Search period end: 30 June 2021 00:00
Orbit: 386 x 389 km, 45.0° (Epoch: 10 June)

Date Brightness Start Highest point End Pass type
(mag) Time Alt. Az. Time Alt. Az. Time Alt. Az.
20 Jun 0.7 02:37:55 72° N 02:37:55 72° N 02:41:05 10° E visible
20 Jun 0.6 04:11:26 10° W 04:14:34 59° SSW 04:17:42 10° ESE visible
21 Jun 3.4 01:42:29 11° E 01:42:29 11° E 01:42:42 10° E visible
21 Jun 0.4 03:14:49 30° W 03:16:14 84° SSW 03:19:24 10° ESE visible
21 Jun 1.8 04:49:59 10° W 04:52:37 24° SSW 04:55:13 10° SSE visible
22 Jun 2.9 02:20:14 16° E 02:20:14 16° E 02:21:01 10° E visible
22 Jun 1.0 03:52:40 20° W 03:54:23 38° SSW 03:57:21 10° SE visible
22 Jun 2.1 22:04:16 10° SSW 22:06:30 18° SSE 22:08:44 10° ESE visible
22 Jun 2.0 23:39:37 10° WSW 23:41:15 27° WSW 23:41:15 27° WSW visible
23 Jun 2.4 04:32:12 14° SW 04:32:17 14° SW 04:34:05 10° S visible
23 Jun 0.8 22:41:24 10° SW 22:44:27 46° SSE 22:47:14 12° E visible
24 Jun 2.1 00:17:52 10° W 00:19:34 29° W 00:19:34 29° W visible
24 Jun 1.5 21:43:24 10° SW 21:46:12 29° SSE 21:49:01 10° E visible
24 Jun 0.5 23:19:29 10° W 23:22:40 88° N 23:24:24 24° ENE visible
25 Jun 3.2 00:56:12 10° W 00:56:42 14° W 00:56:42 14° W visible
25 Jun 0.5 22:21:08 10° WSW 22:24:18 70° SSE 22:27:28 10° E visible
25 Jun 0.7 23:57:48 10° W 00:00:59 72° N 00:01:00 72° N visible
26 Jun 0.7 22:59:24 10° W 23:02:35 75° N 23:05:06 15° E visible
27 Jun 2.6 00:36:06 10° W 00:37:22 22° W 00:37:22 22° W visible
27 Jun 0.6 22:01:00 10° W 22:04:12 87° N 22:07:23 10° E visible
27 Jun 0.6 23:37:44 10° W 23:40:55 80° N 23:41:21 63° ENE visible
28 Jun 0.8 22:39:20 10° W 22:42:31 72° N 22:45:17 13° E visible
29 Jun 2.4 00:16:01 10° W 00:17:32 25° W 00:17:32 25° W visible
29 Jun 0.8 21:40:56 10° W 21:44:07 75° N 21:47:18 10° E visible
29 Jun 0.4 23:17:38 10° W 23:20:49 82° SSW 23:21:26 54° ESE visible
